This demonstration page uses our WeatherBlox Daily Observations layout. Learn more.

Left ArrowRight Arrow

39.08367, -84.50855

Hourly Observations for January 19, 2017

Temp ( °F °C ) Dew Point ( °F °C ) Humidity (%) Winds ( mph kmh ) Pressure ( in mb ) Visibility ( mi km ) Precip ( " mm )
12:53 am 00:53 Cloudy 40 4.4 38 3.3 93 93 S 5 7 30.15 1021 10 16 0.00 0.00
1:53 am 01:53 Cloudy 40 4.4 38 3.3 93 93 SSW 5 7 30.14 1021 10 16 0.00 0.00
2:53 am 02:53 Cloudy 41 5 38 3.3 89 89 Calm 30.16 1021 10 16 0.00 0.00
3:13 am 03:13 Cloudy 40 4.4 38 3.3 93 93 Calm 30.15 1021 10 16 0.00 0.00
3:53 am 03:53 Cloudy 41 5 38 3.3 89 89 Calm 30.14 1021 10 16 0.00 0.00
4:24 am 04:24 Partly Cloudy 39 4 37 3 93 93 Calm 30.12 1020 10 16 0.00 0.00
4:53 am 04:53 Clear 39 3.9 38 3.3 96 96 Calm 30.12 1020 10 16 0.00 0.00
5:53 am 05:53 Clear 37 2.8 37 2.8 100 100 Calm 30.13 1020 10 16 0.00 0.00
6:53 am 06:53 Clear 37 2.8 36 2.2 96 96 Calm 30.11 1020 10 16 0.00 0.00
7:53 am 07:53 Clear 36 2.2 36 2.2 100 100 Calm 30.11 1020 10 16 0.00 0.00
8:53 am 08:53 Sunny 37 2.8 37 2.8 100 100 Calm 30.09 1019 5 8 0.00 0.00
9:53 am 09:53 Sunny with Mist and Fog 41 5 39 3.9 93 93 NE 5 7 30.10 1019 6 10 0.00 0.00
10:53 am 10:53 Partly Cloudy 43 6.1 39 3.9 86 86 N 3 6 30.07 1018 8 13 0.00 0.00
11:53 am 11:53 Partly Cloudy 46 7.8 40 4.4 79 79 Calm 30.04 1017 10 16 0.00 0.00
12:53 pm 12:53 Sunny 47 8.3 41 5 80 80 WSW 3 6 30.03 1017 10 16 0.00 0.00
1:53 pm 13:53 Sunny 49 9.4 41 5 74 74 SE 6 9 29.98 1015 10 16 0.00 0.00
2:53 pm 14:53 Sunny 50 10 41 5 71 71 VRB 3 6 29.96 1015 10 16 0.00 0.00
3:53 pm 15:53 Partly Cloudy 51 10.6 41 5 69 69 E 6 9 29.93 1014 10 16 0.00 0.00
4:53 pm 16:53 Mostly Cloudy 51 10.6 40 4.4 66 66 ENE 5 7 29.92 1013 10 16 0.00 0.00
5:53 pm 17:53 Cloudy 50 10 40 4.4 68 68 E 3 6 29.91 1013 10 16 0.00 0.00
6:53 pm 18:53 Cloudy 50 10 40 4.4 68 68 E 5 7 29.88 1012 10 16 0.00 0.00
7:53 pm 19:53 Cloudy with Light Rain 48 8.9 43 6.1 83 83 NE 5 7 29.86 1011 10 16 0.01 0.25
8:50 pm 20:50 Cloudy with Light Rain 46 8 45 7 93 93 NNE 5 7 29.85 1011 10 16 0.00 0.00
8:53 pm 20:53 Cloudy 48 8.9 44 6.7 86 86 NE 5 7 29.84 1011 10 16 0.00 0.00
9:53 pm 21:53 Cloudy with Light Rain 48 8.9 44 6.7 86 86 NE 6 9 29.81 1010 10 16 0.00 0.00
10:53 pm 22:53 Cloudy with Light Rain 47 8.3 45 7.2 93 93 NNE 5 7 29.79 1009 9 14 0.01 0.25
11:53 pm 23:53 Cloudy with Light Rain 47 8.3 45 7.2 93 93 NNE 6 9 29.75 1008 6 10 0.03 0.76

Powered by AerisWeather